Terminal Aerodrome Forecast
Issued by NWS Pueblo, CO

Home | Current Version | Previous Version | Text Only | Print | Product List | Glossary On
Versions: 1 2 3 4 5 6 7 8 9 10 11 12 13 14 15 16 17 18 19 20 21
000
FTUS45 KPUB 300524
TAFCOS
TAF
KCOS 300524Z 3006/3106 35007KT P6SM FEW200
     FM301800 16010KT P6SM SCT200
     FM302000 16015G21KT P6SM SCT100 BKN200
     FM310200 12009KT P6SM SCT080 BKN150=

USA.gov is the U.S. government's official web portal to all federal, state and local government web resources and services.